Home   Weather   Bardufoss   Past weeks
Flag for Norway

Past Weather in Bardufoss, Norway — Yesterday and Last 2 Weeks

Now
9 °F

Passing clouds.


Feels Like: 9 °F
Forecast: 35 / 21 °F
Wind: No wind

Location: Bardufoss

Current Time: Oct 15, 2019 at 9:15:37 am

Latest Report: Oct 15, 2019 at 8:20 am


Visibility: N/A

Pressure: 29.98 "Hg

Humidity: 92%

Dew Point: 7 °F

Location of BardufossLocation

Past Weather in Bardufoss — Graph

°F

Bardufoss Temperature Yesterday

Maximum temperature yesterday: 32 °F (at 3:20 pm)
Minimum temperature yesterday: 12 °F (at 6:20 am)
Average temperature yesterday: 20 °F

High & Low Weather Summary for the Past Weeks

 TemperatureHumidityPressure
High46 °F (Oct 1, 12:50 pm)100% (Oct 5, 3:20 am)30.27 "Hg (Oct 5, 3:20 am)
Low9 °F (Oct 15, 5:20 am)45% (Oct 2, 4:20 pm)29.24 "Hg (Sep 30, 7:20 am)
Average32 °F82%29.80 "Hg
* Reported Sep 30 7:20 am — Oct 15 7:50 am, Bardufoss. Weather by CustomWeather, © 2019

Note: Actual official high and low records may vary slightly from our data, if they occured in-between our weather recording intervals... More about our weather records

Advertising

Bardufoss Weather History for the Previous 24 Hours

Scroll right to see more
 ConditionsComfort  
Time TempWeatherWind HumidityBarometerVisibility
7:50 am
Tue, Oct 15
9 °FClear.2 mph92%29.95 "Hg10 mi
7:20 am9 °FClear.No wind92%29.95 "Hg10 mi
6:50 am10 °FClear.2 mph85%29.95 "Hg10 mi
6:20 am10 °FClear.No wind85%29.95 "Hg10 mi
5:50 am10 °FClear.No wind85%29.95 "Hg10 mi
5:20 am9 °FClear.2 mph85%29.95 "Hg10 mi
4:50 am10 °FCold.No wind85%29.95 "HgN/A
4:20 am10 °FCold.2 mph92%29.95 "HgN/A
3:50 am10 °FCold.2 mph85%29.95 "HgN/A
3:20 am10 °FCold.No wind92%29.95 "HgN/A
2:50 am10 °FCold.No wind92%29.95 "HgN/A
2:20 am10 °FCold.1 mph92%29.95 "HgN/A
1:50 am10 °FCold.1 mph92%29.95 "HgN/A
1:20 am12 °FCold.No wind92%29.95 "HgN/A
12:50 am12 °FCold.No wind85%29.95 "HgN/A
12:20 am12 °FCold.No wind92%29.92 "HgN/A
11:50 pm
Mon, Oct 14
12 °FCold.No wind92%29.92 "HgN/A
11:20 pm12 °FCold.No wind92%29.92 "HgN/A
10:50 pm14 °FClear.No wind85%29.92 "Hg10 mi
9:50 pm14 °FClear.2 mph85%29.92 "Hg10 mi
8:50 pm16 °FClear.2 mph86%29.92 "Hg10 mi
7:50 pm18 °FClear.No wind93%29.89 "Hg10 mi
6:50 pm18 °FClear.No wind93%29.89 "Hg10 mi
6:20 pm19 °FClear.No wind93%29.89 "Hg10 mi
5:50 pm21 °FClear.No wind93%29.89 "Hg10 mi
5:20 pm23 °FPassing clouds.No wind93%29.86 "HgN/A
4:50 pm25 °FPassing clouds.No wind93%29.86 "HgN/A
4:20 pm28 °FPassing clouds.2 mph80%29.86 "HgN/A
3:50 pm30 °FPassing clouds.No wind75%29.86 "HgN/A
3:20 pm32 °FPassing clouds.No wind69%29.86 "HgN/A
2:50 pm30 °FSunny.No wind75%29.86 "Hg10 mi
2:20 pm30 °FSunny.2 mph75%29.86 "Hg10 mi
1:50 pm28 °FSunny.No wind80%29.86 "Hg10 mi
1:20 pm30 °FSunny.No wind75%29.86 "Hg10 mi
12:50 pm28 °FSunny.3 mph74%29.86 "Hg10 mi
12:20 pm28 °FSunny.1 mph74%29.86 "Hg10 mi
11:50 am28 °FSunny.No wind80%29.86 "Hg10 mi
11:20 am27 °FSunny.No wind86%29.86 "Hg10 mi
10:50 am25 °FSunny.No wind86%29.86 "Hg10 mi
9:50 am19 °FSunny.No wind86%29.83 "Hg10 mi
9:20 am18 °FSunny.1 mph86%29.83 "Hg10 mi
Weather by CustomWeather, © 2019

See weather overview